• In Latvia
  • List of Countries
  • For 7 days
  • Water Temperature
  • Satellite Maps
  • Weather Map
  • Weather Widgets
  • user-avatar
    Login

    Hourly Weather Neuquén

    Today, 12 December, Tuesday

    Time Temperature Precipitation Wind Pressure Humidity
    00:00 +29°C° 0.1 mm 7 mps 727 mmHg 32%
    01:00 +28°C° 0.1 mm 8 mps 727 mmHg 36%
    02:00 +28°C° 0.2 mm 8 mps 728 mmHg 39%
    03:00 +27°C° 0.2 mm 9 mps 728 mmHg 42%
    04:00 +26°C° 0.2 mm 9 mps 728 mmHg 45%
    05:00 +27°C° 0 mm 10 mps 728 mmHg 42%
    06:00 +28°C° 0 mm 11 mps 729 mmHg 39%
    07:00 +28°C° 0 mm 12 mps 729 mmHg 36%
    08:00 +31°C° 0 mm 11 mps 729 mmHg 32%
    09:00 +32°C° 0 mm 11 mps 730 mmHg 29%
    10:00 +33°C° 0 mm 10 mps 730 mmHg 25%
    11:00 +34°C° 0 mm 9 mps 730 mmHg 23%
    12:00 +35°C° 0 mm 9 mps 729 mmHg 21%
    13:00 +37°C° 0 mm 8 mps 729 mmHg 19%
    14:00 +37°C° 0 mm 8 mps 729 mmHg 19%
    15:00 +37°C° 0 mm 8 mps 729 mmHg 18%
    16:00 +36°C° 0 mm 7 mps 728 mmHg 18%
    17:00 +35°C° 0 mm 7 mps 729 mmHg 20%
    18:00 +33°C° 0 mm 8 mps 729 mmHg 22%
    19:00 +32°C° 0 mm 8 mps 729 mmHg 23%
    20:00 +31°C° 0.6 mm 8 mps 730 mmHg 27%
    21:00 +28°C° 0.6 mm 8 mps 731 mmHg 31%
    22:00 +27°C° 0.6 mm 8 mps 732 mmHg 35%
    23:00 +26°C° 0 mm 8 mps 732 mmHg 36%

    Tomorrow, 13 December, Wednesday

    Time Temperature Precipitation Wind Pressure Humidity
    00:00 +24°C° 0 mm 8 mps 732 mmHg 37%
    01:00 +23°C° 0 mm 9 mps 732 mmHg 38%
    02:00 +23°C° 0 mm 9 mps 732 mmHg 40%
    03:00 +22°C° 0 mm 8 mps 732 mmHg 42%
    04:00 +22°C° 0 mm 8 mps 732 mmHg 44%
    05:00 +22°C° 0.1 mm 8 mps 732 mmHg 41%
    06:00 +23°C° 0.1 mm 8 mps 733 mmHg 38%
    07:00 +24°C° 0.1 mm 8 mps 733 mmHg 35%
    08:00 +26°C° 0 mm 8 mps 733 mmHg 31%
    09:00 +28°C° 0 mm 9 mps 733 mmHg 28%
    10:00 +29°C° 0 mm 9 mps 733 mmHg 24%
    11:00 +31°C° 0 mm 9 mps 732 mmHg 22%
    12:00 +32°C° 0 mm 9 mps 732 mmHg 21%
    13:00 +33°C° 0 mm 9 mps 732 mmHg 19%
    14:00 +33°C° 0 mm 10 mps 731 mmHg 20%
    15:00 +33°C° 0 mm 11 mps 731 mmHg 20%
    16:00 +33°C° 0 mm 11 mps 731 mmHg 20%
    17:00 +31°C° 0 mm 11 mps 731 mmHg 22%
    18:00 +29°C° 0 mm 12 mps 732 mmHg 23%
    19:00 +28°C° 0 mm 12 mps 732 mmHg 25%
    20:00 +27°C° 0 mm 12 mps 733 mmHg 28%
    21:00 +26°C° 0 mm 11 mps 733 mmHg 31%
    22:00 +24°C° 0 mm 11 mps 734 mmHg 34%
    23:00 +23°C° 0 mm 11 mps 734 mmHg 35%

    Day after tomorrow, 14 December, Thursday

    Time Temperature Precipitation Wind Pressure Humidity
    00:00 +23°C° 0 mm 10 mps 734 mmHg 37%
    01:00 +22°C° 0 mm 10 mps 734 mmHg 39%
    02:00 +22°C° 0 mm 9 mps 734 mmHg 40%
    03:00 +21°C° 0 mm 9 mps 734 mmHg 41%
    04:00 +21°C° 0 mm 8 mps 734 mmHg 42%
    05:00 +22°C° 0 mm 9 mps 734 mmHg 40%
    06:00 +23°C° 0 mm 10 mps 734 mmHg 37%
    07:00 +24°C° 0 mm 11 mps 734 mmHg 34%
    08:00 +27°C° 0 mm 10 mps 734 mmHg 31%
    09:00 +28°C° 0 mm 10 mps 734 mmHg 27%
    10:00 +31°C° 0 mm 10 mps 734 mmHg 24%
    11:00 +32°C° 0 mm 10 mps 733 mmHg 23%
    12:00 +33°C° 0 mm 11 mps 733 mmHg 21%
    13:00 +34°C° 0 mm 11 mps 732 mmHg 20%
    14:00 +33°C° 0 mm 11 mps 732 mmHg 21%
    15:00 +33°C° 0 mm 12 mps 732 mmHg 21%
    16:00 +33°C° 0 mm 12 mps 731 mmHg 22%
    17:00 +32°C° 0 mm 12 mps 732 mmHg 24%
    18:00 +29°C° 0 mm 12 mps 732 mmHg 27%
    19:00 +28°C° 0 mm 12 mps 732 mmHg 30%
    20:00 +27°C° 0 mm 12 mps 733 mmHg 32%
    21:00 +26°C° 0 mm 11 mps 733 mmHg 34%
    22:00 +24°C° 0 mm 11 mps 733 mmHg 36%
    23:00 +23°C° 0 mm 9 mps 733 mmHg 38%

    15 December, Friday

    Time Temperature Precipitation Wind Pressure Humidity
    00:00 +23°C° 0 mm 8 mps 733 mmHg 39%
    01:00 +22°C° 0 mm 7 mps 733 mmHg 40%
    02:00 +22°C° 0 mm 7 mps 732 mmHg 41%
    03:00 +21°C° 0 mm 6 mps 732 mmHg 42%
    04:00 +21°C° 0 mm 6 mps 732 mmHg 43%
    05:00 +22°C° 0 mm 6 mps 732 mmHg 40%
    06:00 +23°C° 0 mm 6 mps 732 mmHg 36%
    07:00 +26°C° 0 mm 6 mps 732 mmHg 32%
    08:00 +27°C° 0 mm 5 mps 731 mmHg 28%
    09:00 +29°C° 0 mm 4 mps 731 mmHg 25%
    10:00 +30°C° 0 mm 4 mps 730 mmHg 22%
    11:00 +32°C° 0 mm 4 mps 729 mmHg 20%
    12:00 +34°C° 0 mm 5 mps 728 mmHg 18%
    13:00 +35°C° 0 mm 6 mps 727 mmHg 17%
    14:00 +36°C° 0 mm 6 mps 726 mmHg 15%
    15:00 +38°C° 0 mm 7 mps 726 mmHg 14%
    16:00 +39°C° 0 mm 7 mps 725 mmHg 12%
    17:00 +38°C° 0 mm 8 mps 725 mmHg 12%
    18:00 +36°C° 0 mm 10 mps 725 mmHg 13%
    19:00 +34°C° 0 mm 12 mps 725 mmHg 13%
    20:00 +32°C° 0 mm 11 mps 726 mmHg 16%
    21:00 +29°C° 0 mm 11 mps 726 mmHg 18%
    22:00 +27°C° 0 mm 11 mps 726 mmHg 21%
    23:00 +26°C° 0 mm 10 mps 726 mmHg 24%

    16 December, Saturday

    Time Temperature Precipitation Wind Pressure Humidity
    00:00 +24°C° 0 mm 10 mps 726 mmHg 26%
    01:00 +23°C° 0 mm 10 mps 726 mmHg 28%
    02:00 +22°C° 0 mm 9 mps 725 mmHg 29%
    03:00 +22°C° 0 mm 9 mps 725 mmHg 29%
    04:00 +21°C° 0 mm 9 mps 725 mmHg 30%
    05:00 +22°C° 0 mm 11 mps 725 mmHg 27%
    06:00 +24°C° 0 mm 12 mps 725 mmHg 24%
    07:00 +26°C° 0 mm 14 mps 725 mmHg 20%
    08:00 +28°C° 0 mm 15 mps 725 mmHg 18%
    09:00 +29°C° 0 mm 16 mps 724 mmHg 15%
    10:00 +32°C° 0 mm 17 mps 724 mmHg 12%
    11:00 +33°C° 0 mm 18 mps 724 mmHg 14%
    12:00 +33°C° 0 mm 19 mps 724 mmHg 15%
    13:00 +33°C° 0 mm 20 mps 725 mmHg 17%
    14:00 +31°C° 0 mm 20 mps 725 mmHg 16%
    15:00 +28°C° 0 mm 20 mps 726 mmHg 15%
    16:00 +25°C° 0 mm 20 mps 727 mmHg 15%
    17:00 +23°C° 0 mm 18 mps 728 mmHg 17%
    18:00 +20°C° 0 mm 16 mps 730 mmHg 19%
    19:00 +18°C° 0 mm 14 mps 731 mmHg 21%
    20:00 +17°C° 0 mm 12 mps 732 mmHg 22%
    21:00 +17°C° 0 mm 11 mps 732 mmHg 22%
    22:00 +16°C° 0 mm 10 mps 733 mmHg 23%
    23:00 +16°C° 0 mm 9 mps 734 mmHg 23%

    17 December, Sunday

    Time Temperature Precipitation Wind Pressure Humidity
    00:00 +15°C° 0 mm 8 mps 734 mmHg 23%
    01:00 +14°C° 0 mm 7 mps 735 mmHg 23%
    02:00 +14°C° 0 mm 6 mps 735 mmHg 24%
    03:00 +13°C° 0 mm 5 mps 736 mmHg 25%
    04:00 +13°C° 0 mm 5 mps 736 mmHg 26%
    05:00 +14°C° 0 mm 4 mps 737 mmHg 25%
    06:00 +16°C° 0 mm 3 mps 737 mmHg 23%
    07:00 +17°C° 0 mm 2 mps 738 mmHg 22%
    08:00 +18°C° 0 mm 2 mps 738 mmHg 20%
    09:00 +20°C° 0 mm 3 mps 738 mmHg 18%
    10:00 +21°C° 0 mm 3 mps 738 mmHg 16%
    11:00 +22°C° 0 mm 3 mps 737 mmHg 14%
    12:00 +25°C° 0 mm 4 mps 736 mmHg 13%
    13:00 +26°C° 0 mm 4 mps 735 mmHg 11%
    14:00 +27°C° 0 mm 4 mps 735 mmHg 10%
    15:00 +28°C° 0 mm 4 mps 734 mmHg 10%
    16:00 +29°C° 0 mm 4 mps 734 mmHg 9%
    17:00 +28°C° 0 mm 4 mps 733 mmHg 9%
    18:00 +28°C° 0 mm 4 mps 733 mmHg 10%
    19:00 +27°C° 0 mm 4 mps 733 mmHg 10%
    20:00 +27°C° 0 mm 5 mps 733 mmHg 12%
    21:00 +26°C° 0 mm 6 mps 733 mmHg 13%
    22:00 +26°C° 0 mm 6 mps 733 mmHg 15%
    23:00 +24°C° 0 mm 6 mps 732 mmHg 16%
    Show more